Location: Goettingen
(51.5300°N, 9.9433°E)
Time: 17:37:38
(UTC+02:00)

ISS - Pass Details

Date: 10 May 2026
Orbit: 414 x 424 km, 51.6° (Epoch: 13 May)

Event Time Altitude Azimuth Distance (km) Brightness Sun altitude
Rises 22:29:09 0° 239° (WSW) 2,344 0.2 -11.6°
Reaches altitude 10° 22:31:16 10° 234° (SW) 1,485 -0.9 -11.9°
Maximum altitude 22:34:30 50° 158° (SSE) 539 -3.6 -12.2°
Drops below altitude 10° 22:37:45 10° 82° (E) 1,493 -1.3 -12.5°
Enters shadow 22:39:11 - 78° (ENE) 2,068 -0.5 -12.6°
